STARLINK-32288 (60943 NORAD) Tracking and Keplerian Element Data

This shows tracking and keplerian element data for the satellite.

Feedback or suggestion? Click here.




ElementValue
Catalog60943
NameSTARLINK-32288
Epoch Orbit769
Epoch Day286.5125557
Epoch Year2024
RAAN355.2769
Inclination53.162
Eccentricity0.0001354
Argument of Perigee109.1695
Mean Anonmoly250.9457
Mean Motion15.39633375
Decay Rate6.971E-05
L11 60943U 24155V 24286.51255570 .00006971 00000+0 18401-3 0 9990
L22 60943 53.1620 355.2769 0001354 109.1695 250.9457 15.39633375 7691



Live tracking and technical data element details for STARLINK-32288 (NORAD 60943). STARLINK-32288 can be tracked NOW for your location showing map with azimuth and elevation plus other details from your city location.







IsCatalogInMostPopularTable: catalog: 60943, numindb: 10
Update: records affected: 1



GetName: 60943 STARLINK-32288

Hit Count: updated at: Fri, 06 Dec 2024 12:13:05 GMT